User: anonymous
Location: Stonelick Lake State Park
(39.2170°N, 84.0850°W)
Time: 18:52:40
(UTC-04:00)
Language:

Lacrosse 5 - Orbit

View from above orbital plane
View from above orbital plane
View from above satellite
View from above satellite

Ground track
Ground track

The orbit data is extracted from the following two-line orbital elements,

1 28646U 05016A   14107.96231959 0.00000300  00000-0  71183-4 0    05
2 28646  57.0110 123.6031 0009000 158.2890 201.7110 14.53636932    04
Epoch (UTC): 17 April 2014 23:05:44
Eccentricity: 0.0009000
inclination: 57.0110°
perigee height: 707 km
apogee height: 720 km
right ascension of ascending node: 123.6031°
argument of perigee: 158.2890°
revolutions per day: 14.53636932
mean anomaly at epoch: 201.7110°
orbit number at epoch: 0

The dashed part of the orbit path shows where the satellite is in the earth's shadow,  

DLR